Location: Eurasberg
(48.3353°N, 11.0839°E)
Time: 09:30:16
(UTC+00:00)

IRS-1C - Pass Details

Date: 18 January 2026
Orbit: 813 x 814 km, 99.0° (Epoch: 18 February)

Event Time Altitude Azimuth Distance (km) Brightness Sun altitude
Rises 06:03:16 0° 16° (NNE) 3,350 7.3 -9.3°
Reaches altitude 10° 06:05:37 10° 18° (NNE) 2,413 6.6 -8.9°
Maximum altitude 06:10:58 78° 104° (ESE) 838 4.4 -8.1°
Drops below altitude 10° 06:16:17 10° 191° (SSW) 2,395 6.7 -7.3°
Sets 06:18:36 0° 193° (SSW) 3,323 7.4 -6.9°
